Regional Weather Roundup
Issued by NWS Little Rock, AR

Home | Current Version | Previous Version | Graphics & Text | Print | Product List | Glossary On
Versions: 1 2 3 4 5 6 7 8 9 10 11 12 13 14 15 16 17 18 19 20 21 22 23 24 25 26 27
000
ASUS44 KLZK 250305
RWRLZK

WEATHER ROUNDUP FOR ARKANSAS
NATIONAL WEATHER SERVICE LITTLE ROCK AR
1000 PM CDT FRI OCT 24 2014

NOTE: "FAIR" INDICATES FEW OR NO CLOUDS BELOW 12,000 FEET WITH NO
SIGNIFICANT WEATHER AND/OR OBSTRUCTIONS TO VISIBILITY.

ARZ001-003-010-029-250400-
NORTHWEST ARKANSAS

CITY           SKY/WX    TMP DP  RH WIND       PRES   REMARKS
FAYETTEVILLE   CLEAR     57  56  96 CALM      30.10R
FORT SMITH     CLEAR     64  60  87 CALM      30.09R
HARRISON       CLEAR     63  58  83 CALM      30.10R
BENTONVILLE    CLEAR     63  57  82 S5        30.09S
ROGERS         CLEAR     62  57  83 S6        30.10R
SILOAM SPGS    CLEAR     61  54  77 S5        30.10S
HIGHFILL       CLEAR     61  59  93 S6        30.08S
$$

ARZ004-005-016-250400-
NORTH CENTRAL ARKANSAS

CITY           SKY/WX    TMP DP  RH WIND       PRES   REMARKS
BATESVILLE     PTCLDY    64  55  72 S5        30.09S
FLIPPIN        CLEAR     61  54  77 CALM      30.08R
MTN HOME       CLEAR     61  58  90 S3        30.07R
$$

ARZ040-041-250400-
WEST CENTRAL ARKANSAS

CITY           SKY/WX    TMP DP  RH WIND       PRES   REMARKS
MENA           CLEAR     59  59 100 CALM      30.13S
MOUNT IDA      CLEAR     60  58  92 CALM      30.10R FOG
$$

ARZ009-017-025-026-028-250400-
NORTHEAST ARKANSAS

CITY           SKY/WX    TMP DP  RH WIND       PRES   REMARKS
CORNING        FAIR      59  57  94 SW6       30.08R
JONESBORO      PTCLDY    63  56  78 W5        30.08R
NEWPORT        PTCLDY    59  55  86 SE7       30.10R
WALNUT RIDGE   MOCLDY    61  52  72 SW6       30.08R
BLYTHEVILLE    PTCLDY    59  56  89 S3        30.08S
$$

ARZ022-023-033-042-044-250400-
CENTRAL ARKANSAS

CITY           SKY/WX    TMP DP  RH WIND       PRES   REMARKS
LITTLE ROCK    PTCLDY    63  55  75 CALM      30.11R
N LITTLE ROCK  PTCLDY    62  58  88 SW5       30.11R
JACKSONVILLE   CLEAR     58  55  89 CALM      30.10R
SEARCY         CLEAR     57  55  93 CALM      30.11S
HOT SPRINGS    CLEAR     61  58  90 NW3       30.12R
RUSSELLVILLE   CLEAR     61  59  93 CALM      30.08S
$$

ARZ036-250400-
EAST ARKANSAS

CITY           SKY/WX    TMP DP  RH WIND       PRES   REMARKS
WEST MEMPHIS   CLEAR     55  53  93 CALM      30.08S
$$

ARZ050-053-066-070-073-250400-
SOUTHWEST ARKANSAS

CITY           SKY/WX    TMP DP  RH WIND       PRES   REMARKS
ARKADELPHIA    FAIR      58  58 100 CALM      30.12R FOG
CAMDEN         FOG       54  52  94 CALM      30.12R VSB 3/4
TEXARKANA      CLEAR     63  58  83 SW5       30.12R
EL DORADO      CLEAR     55  54  96 CALM      30.12S
DE QUEEN       FOG       59  59 100 CALM      30.10S VSB 1/4
$$

ARZ056-057-069-250400-
SOUTHEAST ARKANSAS

CITY           SKY/WX    TMP DP  RH WIND       PRES   REMARKS
PINE BLUFF     CLEAR     57  54  89 S5        30.11S
STUTTGART      CLEAR     63  54  72 S6        30.11S
MONTICELLO     CLEAR     56  53  90 CALM      30.12R

$$





USA.gov is the U.S. government's official web portal to all federal, state and local government web resources and services.